Nantucket, MA

5:36 PM EST on November 18, 2017 (GMT -0500)
Nantucket Memorial

Weather History for KACK - April, 2013

Change the Weather History Date:

Monday, April 1, 2013

  Actual Average Record
Temperature  
Mean Temperature 44 °F -  
Max Temperature 51 °F 48 °F 59 °F (2016)
Min Temperature 39 °F 34 °F 22 °F (1964)
Degree Days  
Heating Degree Days 20    
Moisture  
Dew Point 42 °F    
Average Humidity 87    
Maximum Humidity 96    
Minimum Humidity 45    
Precipitation  
Precipitation 0.11 in - - ()
Sea Level Pressure  
Sea Level Pressure 29.67 in    
Wind  
Wind Speed 21 mph (SW)    
Max Wind Speed 30 mph    
Max Gust Speed 39 mph    
Visibility 6 miles    
Events Rain    
Averages and records for this station are not official NWS values.
T = Trace of Precipitation, MM = Missing Value Source: NWS Daily Summary

Daily Weather History Graph

Daily Weather History Graph

Search for Another Location

Airport or City:

Trip Planner

Search our weather history database for the weather conditions in past years. The results will help you decide how hot, cold, wet, or windy it might be!

Date:

Astronomy

Apr. 01, 2013 Rise Set
Actual Time 6:23 AM EDT 7:05 PM EDT
Civil Twilight 5:55 AM EDT 7:33 PM EDT
Nautical Twilight 5:22 AM EDT 8:06 PM EDT
Astronomical Twilight 4:48 AM EDT 8:40 PM EDT
Moon 12:13 AM EDT (4/1) 10:03 AM EDT (4/1)
Length of Visible Light 13h 38m
Length of Day
12h 42m
Waning Gibbous, 67% of the Moon is Illuminated
Apr 1
Waning Gibbous
Apr 3
Last Quarter
Apr 10
New
Apr 18
First Quarter
Apr 25
Full

Hourly Weather History & Observations

Time (EDT) Temp. Windchill Dew Point Humidity Pressure Visibility Wind Dir Wind Speed Gust Speed Precip Events Conditions
12:43 AM 46.4 °F 37.5 °F 42.8 °F 87% 29.69 in 5.0 mi SE 27.6 mph 39.1 mph 0.04 in Rain Light Rain
12:53 AM 46.0 °F 38.8 °F 44.1 °F 93% 29.70 in 4.0 mi SE 18.4 mph 31.1 mph 0.05 in Rain Light Rain
1:07 AM 46.4 °F 37.5 °F 44.6 °F 93% 29.67 in 7.0 mi SE 27.6 mph 34.5 mph 0.00 in Rain Light Rain
1:53 AM 46.9 °F - 45.0 °F 93% 29.65 in 4.0 mi SSE 29.9 mph 39.1 mph 0.04 in Rain Light Rain
2:09 AM 48.2 °F - 46.4 °F 93% 29.64 in 6.0 mi South 26.5 mph 36.8 mph 0.00 in Rain Light Rain
2:46 AM 48.2 °F - 46.4 °F 93% 29.62 in 5.0 mi South 17.3 mph - 0.00 in   Overcast
2:53 AM 48.0 °F - 46.9 °F 96% 29.62 in 5.0 mi South 15.0 mph 25.3 mph 0.00 in   Overcast
3:53 AM 46.9 °F - 45.0 °F 93% 29.62 in 3.0 mi SW 18.4 mph - N/A   Overcast
3:57 AM 46.4 °F 40.1 °F 44.6 °F 93% 29.62 in 2.5 mi SW 15.0 mph - N/A   Overcast
4:06 AM 46.4 °F 38.5 °F 44.6 °F 93% 29.62 in 1.0 mi SW 21.9 mph 26.5 mph N/A   Overcast
4:53 AM 45.0 °F 36.6 °F 43.0 °F 93% 29.62 in 1.5 mi WSW 21.9 mph - N/A   Overcast
5:25 AM 44.6 °F 36.4 °F 42.8 °F 93% 29.63 in 3.0 mi WSW 20.7 mph - N/A   Overcast
5:36 AM 44.6 °F 35.7 °F 42.8 °F 93% 29.63 in 1.8 mi WSW 24.2 mph 29.9 mph N/A   Overcast
5:49 AM 44.6 °F 36.9 °F 42.8 °F 93% 29.63 in 3.0 mi WSW 18.4 mph - N/A   Overcast
5:50 AM 44.1 °F 36.2 °F 43.0 °F 96% 29.63 in 3.0 mi WSW 18.4 mph - N/A   Overcast
6:53 AM 44.1 °F 35.4 °F 43.0 °F 96% 29.65 in 6.0 mi WSW 21.9 mph 26.5 mph N/A   Overcast
7:08 AM 44.6 °F 36.6 °F 42.8 °F 93% 29.65 in 8.0 mi WSW 19.6 mph - N/A   Overcast
7:48 AM 44.6 °F 37.8 °F 42.8 °F 93% 29.67 in 3.0 mi WSW 15.0 mph 23.0 mph N/A   Mostly Cloudy
7:53 AM 45.0 °F 37.6 °F 43.0 °F 93% 29.67 in 8.0 mi WSW 17.3 mph - N/A   Scattered Clouds
8:53 AM 46.9 °F - 43.0 °F 86% 29.68 in 10.0 mi WSW 15.0 mph - N/A   Clear
9:53 AM 46.9 °F - 43.0 °F 86% 29.70 in 10.0 mi SW 18.4 mph - N/A   Clear
10:53 AM 48.0 °F - 43.0 °F 83% 29.71 in 10.0 mi SW 18.4 mph - N/A   Clear
11:53 AM 48.9 °F - 43.0 °F 80% 29.71 in 8.0 mi SW 17.3 mph - N/A   Clear
12:49 PM 48.2 °F - 42.8 °F 82% 29.70 in 9.0 mi SW 17.3 mph - N/A   Scattered Clouds
12:53 PM 48.9 °F - 44.1 °F 83% 29.70 in 9.0 mi SW 17.3 mph - N/A   Partly Cloudy
1:53 PM 50.0 °F - 44.1 °F 80% 29.68 in 7.0 mi SSW 13.8 mph - N/A   Clear
2:53 PM 50.0 °F - 44.1 °F 80% 29.66 in 7.0 mi SSW 16.1 mph - N/A   Clear
3:53 PM 50.0 °F - 44.1 °F 80% 29.64 in 9.0 mi SSW 15.0 mph - N/A   Clear
4:53 PM 48.9 °F - 43.0 °F 80% 29.63 in 8.0 mi SW 13.8 mph - N/A   Clear
5:53 PM 48.0 °F - 43.0 °F 83% 29.63 in 8.0 mi SSW 16.1 mph - N/A   Clear
6:53 PM 46.9 °F - 42.1 °F 83% 29.64 in 7.0 mi SW 13.8 mph - N/A   Mostly Cloudy
7:53 PM 46.0 °F 39.3 °F 42.1 °F 86% 29.66 in 9.0 mi West 16.1 mph 23.0 mph N/A   Overcast
8:53 PM 43.0 °F 33.8 °F 39.0 °F 86% 29.71 in 9.0 mi WNW 23.0 mph 31.1 mph 0.02 in Rain Light Rain
9:01 PM 42.8 °F 33.5 °F 39.2 °F 87% 29.71 in 10.0 mi WNW 23.0 mph 34.5 mph 0.00 in Rain Light Rain
9:53 PM 39.0 °F 30.6 °F 35.1 °F 86% 29.75 in 10.0 mi NW 15.0 mph - 0.00 in   Overcast
10:53 PM 42.1 °F 33.3 °F 28.9 °F 60% 29.75 in 10.0 mi NW 19.6 mph 26.5 mph N/A   Overcast
11:53 PM 39.9 °F 30.5 °F 19.9 °F 45% 29.78 in 10.0 mi NW 19.6 mph 29.9 mph N/A   Partly Cloudy